Terminal Aerodrome Forecast
Issued by NWS Grand Forks, ND

Home | Current Version | Previous Version | Graphics & Text | Print | Product List | Glossary On
Versions: 1 2 3 4 5 6 7 8 9 10 11 12 13
000
FTUS43 KFGF 022300
TAFFAR
TAF
KFAR 022337Z 0300/0324 16020KT P6SM BKN070
     FM030200 16024KT P6SM BKN080
     FM030900 23014KT 5SM -SN OVC030
     FM031100 31017G24KT 2SM -SN OVC019
     FM031400 32023G32KT 1SM -SN BLSN OVC015=

USA.gov is the U.S. government's official web portal to all federal, state and local government web resources and services.